Location: Breungeshain
(50.5000°N, 9.2000°E)
Time: 00:10:34
(UTC+00:00)

ISS - Pass Details

Date: 18 May 2018
Orbit: 402 x 407 km, 51.6° (Epoch: 26 May)

Event Time Altitude Azimuth Distance (km) Brightness Sun altitude
Exits shadow 01:20:55 - 279° (W) 1,679 -0.9 -15.1°
Reaches altitude 10° 01:21:27 10° 280° (W) 1,459 -1.2 -15.0°
Maximum altitude 01:24:43 73° 6° (N) 426 -3.6 -14.8°
Drops below altitude 10° 01:27:59 10° 92° (E) 1,458 -0.6 -14.5°
Sets 01:30:04 0° 94° (E) 2,317 0.4 -14.3°
